Weather History for Wenatchee, WA

Change the Weather History Date:

Saturday, November 17, 2012

  Actual Average Record
Temperature  
Mean Temperature 40 °F 34 °F  
Max Temperature 41 °F 40 °F 57 °F (1999)
Min Temperature 38 °F 27 °F 9 °F (2014)
Degree Days  
Heating Degree Days 25 31  
Month to date heating degree days 385 483  
Since 1 July heating degree days 832 1439  
Cooling Degree Days 0 0  
Month to date cooling degree days 0 0  
Year to date cooling degree days 888 249  
Moisture  
Dew Point 37 °F    
Average Humidity 89    
Maximum Humidity 92    
Minimum Humidity 85    
Precipitation  
Precipitation 0.14 in 0.08 in 0.30 in (1981)
Month to date precipitation 0.26 1.15  
Year to date precipitation 7.24 13.49  
Snow  
Snow 0.00 in 0.40 in - ()
Month to date snowfall 2.6  
Since 1 July snowfall 2.7  
Since 1 September snowfall 2.7  
Snow Depth -    
Sea Level Pressure  
Sea Level Pressure 29.74 in    
Wind  
Wind Speed 2 mph (WNW)    
Max Wind Speed 18 mph    
Max Gust Speed 56 mph    
Visibility 5 miles    
Events Fog , Rain    
T = Trace of Precipitation, MM = Missing Value Source: NWS Daily Summary

Daily Weather History Graph

Daily Weather History Graph

Search for Another Location

Airport:

Trip Planner

Search our weather history database for the weather conditions in past years. The results will help you decide how hot, cold, wet, or windy it might be!

Date:

Astronomy

Nov. 17, 2012 Rise Set
Actual Time 7:09 AM PST 4:22 PM PST
Civil Twilight 6:35 AM PST 4:55 PM PST
Nautical Twilight 5:57 AM PST 5:33 PM PST
Astronomical Twilight 5:21 AM PST 6:09 PM PST
Moon 10:57 AM PST (11/17) 8:39 PM PST (11/17)
Length of Visible Light 10h 20m
Length of Day
9h 13m
Waxing Crescent, 21% of the Moon is Illuminated
Nov 17
Waxing Crescent
Nov 20
First Quarter
Nov 28
Full
Dec 6
Last Quarter
Dec 13
New

Hourly Weather History & Observations

Time (PST) Temp. Windchill Dew Point Humidity Pressure Visibility Wind Dir Wind Speed Gust Speed Precip Events Conditions
12:11 AM 39.2 °F - 37.4 °F 93% 29.90 in 1.2 mi Calm Calm - N/A   Overcast
12:22 AM 39.2 °F - 37.4 °F 93% 29.90 in 0.5 mi Calm Calm - N/A Fog Fog
12:51 AM 39.2 °F - 35.6 °F 87% 29.89 in 1.2 mi Calm Calm - N/A   Overcast
12:55 AM 39.0 °F - 36.0 °F 89% 29.91 in 1.8 mi Calm Calm - N/A   Overcast
1:00 AM 39.2 °F - 37.4 °F 93% 29.88 in 2.0 mi Calm Calm - N/A   Overcast
1:13 AM 39.2 °F - 37.4 °F 93% 29.88 in 3.0 mi Calm Calm - N/A   Overcast
1:29 AM 39.2 °F - 35.6 °F 87% 29.87 in 2.5 mi Calm Calm - N/A   Overcast
1:39 AM 39.2 °F - 35.6 °F 87% 29.88 in 3.0 mi Calm Calm - N/A   Overcast
1:48 AM 39.2 °F - 37.4 °F 93% 29.87 in 3.0 mi Calm Calm - N/A   Overcast
1:55 AM 39.0 °F - 37.0 °F 93% 29.89 in 3.0 mi Calm Calm - N/A   Overcast
2:28 AM 39.2 °F - 37.4 °F 93% 29.86 in 2.5 mi Calm Calm - N/A   Overcast
2:37 AM 39.2 °F - 37.4 °F 93% 29.86 in 1.5 mi Calm Calm - N/A   Overcast
2:55 AM 39.0 °F - 37.0 °F 93% 29.88 in 1.5 mi Calm Calm - N/A   Overcast
3:14 AM 39.2 °F - 35.6 °F 87% 29.85 in 2.0 mi Calm Calm - N/A   Overcast
3:42 AM 39.2 °F - 37.4 °F 93% 29.83 in 3.0 mi Calm Calm - N/A   Overcast
3:50 AM 39.2 °F - 37.4 °F 93% 29.83 in 4.0 mi Calm Calm - N/A   Overcast
3:55 AM 39.0 °F - 37.0 °F 93% 29.85 in 4.0 mi Calm Calm - N/A   Overcast
4:20 AM 39.2 °F - 37.4 °F 93% 29.82 in 2.5 mi Calm Calm - N/A   Overcast
4:31 AM 39.2 °F - 37.4 °F 93% 29.82 in 3.0 mi Calm Calm - N/A   Overcast
4:55 AM 39.0 °F - 37.0 °F 93% 29.84 in 3.0 mi Calm Calm - N/A   Overcast
5:21 AM 39.2 °F - 37.4 °F 93% 29.80 in 4.0 mi Calm Calm - N/A   Overcast
5:55 AM 39.0 °F - 37.0 °F 93% 29.81 in 5.0 mi Calm Calm - N/A   Overcast
6:02 AM 39.2 °F - 37.4 °F 93% 29.79 in 5.0 mi Calm Calm - N/A   Overcast
6:21 AM 39.2 °F - 35.6 °F 87% 29.78 in 6.0 mi Calm Calm - N/A   Overcast
6:33 AM 39.2 °F 29.8 °F 37.4 °F 93% 29.78 in 5.0 mi SSW 18.4 mph 56.4 mph N/A   Overcast
6:52 AM 39.2 °F - 35.6 °F 87% 29.77 in 5.0 mi Calm Calm - N/A   Overcast
6:55 AM 39.0 °F - 36.0 °F 89% 29.79 in 5.0 mi Calm Calm - 0.00 in Rain Light Rain
7:28 AM 39.2 °F 35.9 °F 35.6 °F 87% 29.77 in 1.5 mi SSE 4.6 mph - 0.00 in Rain Light Rain
7:36 AM 39.2 °F - 37.4 °F 93% 29.77 in 0.5 mi Calm Calm - 0.00 in Fog , Rain Light Rain
7:47 AM 39.2 °F - 37.4 °F 93% 29.77 in 1.8 mi Calm Calm - 0.00 in   Overcast
7:55 AM 39.9 °F - 37.0 °F 89% 29.78 in 2.0 mi Calm Calm - 0.00 in   Overcast
8:27 AM 39.2 °F - 37.4 °F 93% 29.75 in 3.0 mi Calm Calm - 0.00 in   Overcast
8:55 AM 39.9 °F - 36.0 °F 86% 29.76 in 4.0 mi Calm Calm - 0.00 in Rain Light Rain
9:29 AM 39.2 °F 35.9 °F 35.6 °F 87% 29.73 in 5.0 mi Variable 4.6 mph - 0.02 in Rain Light Rain
9:55 AM 39.9 °F 37.8 °F 36.0 °F 86% 29.73 in 6.0 mi West 3.5 mph - 0.04 in Rain Light Rain
10:18 AM 39.2 °F 35.9 °F 37.4 °F 93% 29.71 in 5.0 mi SW 4.6 mph - 0.00 in Rain Light Rain
10:32 AM 39.2 °F - 37.4 °F 93% 29.70 in 3.0 mi Calm Calm - 0.02 in Rain Light Rain
10:39 AM 39.2 °F - 37.4 °F 93% 29.69 in 2.5 mi Calm Calm - 0.03 in Rain Light Rain
10:55 AM 39.9 °F - 37.0 °F 89% 29.70 in 4.0 mi Calm Calm - 0.04 in Rain Light Rain
11:02 AM 39.2 °F - 37.4 °F 93% 29.68 in 5.0 mi Calm Calm - 0.00 in Rain Light Rain
11:30 AM 39.2 °F - 37.4 °F 93% 29.66 in 7.0 mi Calm Calm - 0.00 in Rain Light Rain
11:55 AM 41.0 °F - 37.0 °F 86% 29.67 in 6.0 mi Calm Calm - 0.01 in Rain Light Rain
12:05 PM 41.0 °F - 37.4 °F 87% 29.65 in 7.0 mi Calm Calm - 0.00 in Rain Light Rain
12:55 PM 39.9 °F - 37.0 °F 89% 29.65 in 4.0 mi North - - 0.02 in Rain Light Rain
1:55 PM 39.9 °F - 37.9 °F 93% 29.62 in 6.0 mi Calm Calm - 0.01 in Rain Light Rain
2:02 PM 39.2 °F 35.9 °F 37.4 °F 93% 29.60 in 7.0 mi WSW 4.6 mph - 0.00 in Rain Light Rain
2:50 PM 41.0 °F - 37.4 °F 87% 29.56 in 10.0 mi North - - 0.01 in   Overcast
2:55 PM 41.0 °F - 36.0 °F 82% 29.58 in 10.0 mi North - - 0.01 in   Overcast
4:39 PM 39.2 °F 35.0 °F 35.6 °F 87% 29.56 in 10.0 mi West 5.8 mph - N/A   Overcast
4:55 PM 39.0 °F 33.4 °F 36.0 °F 89% 29.59 in 10.0 mi WNW 8.1 mph - N/A   Overcast
5:08 PM 39.2 °F 33.6 °F 35.6 °F 87% 29.57 in 10.0 mi NW 8.1 mph - 0.00 in Rain Light Rain
5:51 PM 39.2 °F 35.0 °F 35.6 °F 87% 29.58 in 10.0 mi WSW 5.8 mph - 0.01 in Rain Light Rain
5:55 PM 39.0 °F 34.0 °F 35.1 °F 86% 29.60 in 10.0 mi West 6.9 mph - 0.01 in Rain Light Rain
6:40 PM 41.0 °F 37.1 °F 35.6 °F 81% 29.58 in 10.0 mi NW 5.8 mph - 0.00 in   Overcast
6:55 PM 39.9 °F 33.9 °F 35.1 °F 83% 29.58 in 10.0 mi NW 9.2 mph - 0.00 in   Overcast
7:55 PM 39.9 °F 37.8 °F 36.0 °F 86% 29.59 in 10.0 mi West 3.5 mph - N/A   Overcast
8:55 PM 39.0 °F - 36.0 °F 89% 29.61 in 10.0 mi Calm Calm - N/A   Mostly Cloudy
9:55 PM 39.0 °F 35.7 °F 35.1 °F 86% 29.65 in 10.0 mi NE 4.6 mph - N/A   Clear
10:55 PM 37.9 °F 33.5 °F 34.0 °F 86% 29.67 in 10.0 mi NNE 5.8 mph - N/A   Clear
11:55 PM 37.9 °F 32.7 °F 35.1 °F 89% 29.69 in 10.0 mi ENE 6.9 mph - N/A   Clear